Location: Anabu Uno
(14.3994°N, 120.9421°E)
Time: 22:33:00
(UTC+00:00)

Daily predictions for brighter satellites

Satellite Brightness Start Highest point End
(mag) Time Altitude Azimuth Time Altitude Azimuth Time Altitude Azimuth
Cosmos 2333 Rocket 4.4 12:21:33 10° WSW 12:24:42 21° W 12:24:42 21° W
Cosmos 2360 Rocket 4.3 12:22:27 10° SW 12:24:40 21° WSW 12:24:40 21° WSW
CZ-3 R/B 3.8 19:30:18 47° NW 19:35:23 55° N 19:44:49 10° E
Cosmos 1697 Rocket 3.1 20:00:02 53° NE 20:00:40 56° ENE 20:06:11 10° SSE
CZ-3C R/B 2.4 20:08:13 32° NE 20:08:13 32° NE 20:12:49 10° ENE
Cosmos 1634 Rocket 3.8 20:10:51 56° N 20:12:17 88° W 20:18:32 10° S
Cosmos 1777 Rocket 4.1 20:13:10 61° S 20:13:10 61° S 20:17:26 10° S
SL-16 R/B 2.4 20:06:28 10° S 20:12:41 75° WSW 20:13:24 67° NW
Stardust Del rocket 4.4 20:19:49 36° SE 20:19:49 36° SE 20:22:04 10° E
IRS-1D 4.5 20:16:48 10° NNE 20:21:41 47° ESE 20:26:40 10° S
Centaur AC-119 3.7 20:22:47 39° N 20:22:47 39° N 20:27:10 10° NE
Cosmos 1782 3.7 20:25:20 37° SSE 20:25:20 37° SSE 20:27:37 10° S
Cosmos 2279 Rocket 4.0 20:21:33 15° N 20:26:48 80° E 20:33:02 10° S
Atlas Centaur 2 3.3 20:30:18 37° WSW 20:32:54 49° SSW 20:40:44 10° SE
USA 238 DEB 4.1 20:36:12 31° NW 20:40:23 64° WSW 20:48:30 10° SSE
USA 238 4.1 20:36:14 30° NW 20:40:30 65° WSW 20:48:38 10° SSE
Atlas 2A Centaur Rocket 3.5 20:41:45 17° NNE 20:41:45 17° NNE 20:42:56 10° NE
Cosmos 990 Rocket 3.9 20:45:45 25° NNW 20:48:49 75° WSW 20:54:01 10° S
Cosmos 2098 Rocket 3.5 20:43:25 11° N 20:48:56 74° W 20:54:15 10° S
GPS 2-12 Rocket1 2.9 20:48:40 44° W 20:50:06 85° SSW 20:54:40 10° ESE
GPS 2-15 Rocket1 3.0 20:51:29 32° WSW 20:53:34 85° SSE 20:58:08 10° ENE
UNK 3.8 20:50:38 10° S 20:55:07 56° WSW 20:57:50 23° NNW
IUS-1 SRM-2 2.8 20:56:57 27° W 20:59:20 50° SSW 21:01:54 10° SE
CZ-4 R/B 3.6 20:56:58 10° N 21:01:31 65° WNW 21:06:06 10° SSW
NOAA 12 4.0 20:57:17 10° N 21:02:28 67° WNW 21:07:38 10° SSW
Cosmos 1980 Rocket 2.1 20:57:40 10° NNW 21:03:11 89° WSW 21:08:46 10° SSE
BREEZE-M DEB (TANK) 2.2 21:02:54 22° WSW 21:04:34 62° NW 21:10:37 10° NE
Cosmos 2142 Rocket 4.5 21:00:41 10° NNW 21:06:44 58° W 21:12:44 10° S
Cosmos 1092 Rocket 4.1 21:01:01 10° S 21:07:20 83° E 21:13:36 10° N
Cosmos 1933 3.2 21:04:52 10° N 21:08:39 80° E 21:12:27 10° S
Cosmos 2369 4.5 21:06:16 10° N 21:11:45 52° ENE 21:17:13 10° SSE
Cosmos 1484 Rocket 3.5 21:12:30 10° NNE 21:15:43 47° E 21:18:57 10° S
Cosmos 1606 Rocket 3.5 21:12:30 10° N 21:16:54 90° ESE 21:21:14 10° S
ARIANE 3 DEB 4.2 21:18:37 10° SW 21:20:03 14° S 21:21:40 10° SE
Cosmos 158 Rocket 4.1 21:14:45 10° SSW 21:20:05 89° ESE 21:25:26 10° NNE
Cosmos 1833 4.2 21:14:43 10° SSW 21:20:19 90° WNW 21:25:57 10° NNE
COSMOS 2455 3.7 21:17:42 10° N 21:23:30 51° ENE 21:29:17 10° SE
DELTA-4 R/B 3.9 21:09:33 10° W 21:26:30 74° S 21:30:25 10° E
ATLAS 2AS CENTAUR R/B 2.8 21:20:01 10° SSW 21:27:16 82° WNW 21:34:19 10° NNE
Aurora 2 Rocket 3.1 21:24:38 10° WSW 21:30:40 69° SSE 21:34:58 10° ENE
USA 267 3.9 21:24:44 10° NE 21:31:09 61° SE 21:37:33 10° SSW
ISS -2.5 21:32:16 10° SSW 21:35:30 46° SE 21:38:43 10° NE
SL-8 R/B 4.2 21:36:06 10° NNW 21:40:45 57° NE 21:45:24 10° SE
Cosmos 1626 Rocket 3.6 21:37:27 10° S 21:41:53 89° WNW 21:46:17 10° N
Cosmos 1726 Rocket 3.5 21:37:56 10° NNW 21:42:01 58° W 21:46:01 10° S
SL-24 R/B - RUBIN 2 3.9 21:40:22 10° NW 21:44:38 50° WSW 21:49:12 10° S
Meteor 2-20 4.5 21:42:56 10° N 21:49:01 86° W 21:55:05 10° S
SL-08 ROCKET BODY 4.4 21:44:37 10° S 21:50:32 90° W 21:56:23 10° N
Centaur AC-146 4.3 21:14:51 13° WNW 21:55:15 73° SSW 22:00:09 10° ESE
